Wind_Speed
18 14 9 7 7 7 7 7 7 7 7 6 6 6 5 5 4 4 5 5 5 6 6 6 6 6 5 4 3 4 4 5 5 4 3 3 2 2 2 2 2 3 3 3 2 4 5 5 4 5 6 6 6 6 5 5 4 3 2 2 2 1
18 12 9 8 7 7 7 6 6 6 5 4 4 4 4 4 3 3 3 3 3 4 5 5 6 6 6 5 4 4 4 5 5 5 4 3 3 2 2 2 2 3 3 4 3 2 3 4 4 5 6 5 5 5 5 5 4 3 3 2 2 1
13 10 8 7 6 6 6 5 4 4 3 3 3 3 3 3 2 2 3 3 3 3 4 4 5 6 6 6 6 6 5 5 5 5 5 4 4 3 3 3 3 3 3 4 4 1 2 3 4 4 5 5 4 4 4 4 4 4 3 3 3 2
11 9 8 7 6 6 5 5 4 3 3 3 2 2 2 2 1 2 3 4 4 4 4 4 5 6 6 7 7 7 7 6 5 5 5 5 5 5 4 4 4 3 3 4 4 2 1 2 3 3 4 4 3 3 3 3 3 4 4 4 4 4
10 8 7 7 5 4 4 4 3 3 3 2 2 1 1 1 1 2 3 4 5 5 5 5 5 6 6 7 8 8 7 7 6 5 5 6 6 6 6 5 5 4 3 3 4 3 1 1 1 1 2 2 2 3 3 3 3 3 3 3 3 4
8 7 6 5 3 2 2 2 2 1 1 0 0 1 1 2 2 3 3 4 5 5 6 5 6 6 6 6 8 9 9 8 8 7 7 7 7 7 7 7 6 6 5 4 4 4 3 2 1 1 1 1 1 2 2 3 3 3 3 3 3 3
7 5 4 2 1 0 0 1 0 1 2 2 2 3 3 4 4 5 5 5 6 6 6 6 6 7 7 7 8 9 9 10 9 9 8 9 8 8 8 8 7 7 6 5 5 6 6 5 4 2 2 2 1 1 1 2 2 3 3 3 2 2
5 4 4 3 2 2 2 2 1 1 2 3 3 3 4 5 6 6 7 7 7 7 7 8 8 8 8 8 9 10 10 10 11 10 10 11 10 10 10 9 9 8 8 7 7 7 7 7 6 4 3 3 3 2 2 2 2 2 2 2 2 2
5 4 4 4 4 4 3 3 3 3 3 4 4 4 5 7 7 8 8 9 9 9 9 9 9 9 9 9 9 10 11 11 12 12 12 12 11 11 11 11 10 10 9 9 9 8 8 7 7 7 5 5 5 4 3 3 3 2 2 2 2 3
5 4 4 4 3 3 3 4 5 6 6 6 7 8 10 11 11 11 11 10 10 11 11 11 11 11 11 11 11 11 12 12 13 13 13 13 12 12 12 12 12 11 11 10 10 10 9 9 8 8 8 7 6 5 5 5 4 4 3 3 3 3
5 4 4 2 2 3 4 6 7 7 8 8 8 10 12 13 14 13 12 12 12 12 13 14 14 14 14 14 14 13 13 14 14 14 14 14 14 14 14 13 13 13 12 11 11 11 11 11 10 10 9 9 8 7 7 7 7 6 5 4 4 4
5 4 3 3 4 5 6 8 8 8 9 9 9 10 11 12 12 13 13 14 14 14 15 15 16 16 16 16 16 16 16 16 16 16 16 16 16 15 15 15 15 14 14 13 12 12 12 11 12 12 11 10 10 8 8 8 8 8 7 6 5 4
5 4 3 5 7 8 9 9 9 9 9 10 10 11 11 12 12 14 15 15 16 16 16 17 17 16 17 17 18 18 18 18 18 18 17 17 17 17 17 17 17 16 16 15 15 14 14 13 13 13 13 12 12 11 10 10 10 10 10 9 8 6
5 4 6 7 8 9 9 9 9 10 10 11 12 12 13 13 14 16 17 18 18 19 19 19 18 18 17 17 18 19 19 20 20 20 19 19 18 18 18 18 18 18 18 17 17 17 17 15 14 14 14 14 14 14 13 12 12 12 12 12 11 9
6 7 8 8 8 8 9 9 10 11 13 14 15 16 16 17 17 18 19 21 21 22 22 21 21 20 19 19 19 19 20 20 20 20 20 20 20 19 19 19 19 19 19 19 19 19 19 18 18 17 16 16 16 16 16 15 15 14 14 14 13 12
8 9 9 9 9 10 11 12 13 14 15 17 18 20 21 21 21 22 22 23 24 24 24 24 24 23 22 21 21 21 21 21 20 20 20 21 21 21 20 20 20 20 19 19 19 20 20 20 20 20 20 19 19 19 19 18 17 16 15 15 15 15
9 10 10 10 11 12 13 15 16 17 19 20 22 23 24 25 25 25 25 24 24 24 25 25 25 25 25 24 23 23 23 23 22 22 21 20 21 21 21 20 20 20 20 20 20 20 21 21 21 21 22 21 21 21 21 21 20 18 17 17 16 16
10 11 11 13 14 15 16 17 19 21 22 24 25 27 27 27 27 26 26 24 24 23 23 23 24 24 25 26 26 25 25 25 25 24 23 22 21 21 21 21 21 20 20 19 20 21 22 23 23 23 22 22 23 23 23 22 22 21 20 19 18 17
12 13 14 16 17 18 19 20 22 24 26 27 28 29 29 28 27 26 25 24 23 22 22 21 21 22 23 25 26 26 27 28 27 26 25 25 24 22 21 21 21 21 21 20 20 21 22 23 24 24 23 23 24 24 24 23 23 22 21 20 20 19
14 15 17 18 19 20 22 23 25 27 28 28 28 28 28 27 26 26 25 24 23 23 23 22 21 21 22 23 24 25 26 27 27 27 26 25 25 24 23 22 21 21 22 22 21 21 21 22 23 24 24 24 25 25 25 24 24 23 23 22 21 21
17 18 19 20 21 22 23 25 27 27 26 26 26 26 26 26 26 25 25 25 25 24 24 24 23 22 22 22 23 24 24 26 26 25 25 24 24 24 24 23 23 22 22 21 21 22 22 22 22 22 23 23 24 25 25 25 24 24 24 23 23 22
19 19 20 21 22 23 25 27 27 26 25 24 25 25 25 25 26 26 26 26 26 25 26 26 25 25 24 23 23 23 24 25 25 24 24 24 24 24 24 23 23 24 24 23 22 22 23 23 22 22 22 23 22 22 23 24 24 24 24 24 24 24
20 21 22 23 24 25 26 27 26 25 24 25 25 25 26 26 26 27 28 28 27 27 27 27 27 27 27 26 24 24 23 24 24 24 24 25 25 25 25 25 24 24 24 25 24 24 24 24 23 22 23 23 22 21 21 22 22 23 23 23 23 24
22 23 23 24 24 25 26 26 25 25 26 26 26 26 27 27 27 28 28 29 29 28 28 28 29 29 29 28 27 26 25 24 24 24 26 26 26 26 26 27 26 25 25 24 25 25 25 25 24 24 24 24 23 22 22 21 21 21 22 22 23 23
22 23 23 23 23 24 25 25 25 26 26 27 27 27 28 28 28 29 29 30 30 30 30 30 30 29 29 29 29 28 27 26 25 25 26 27 27 27 27 27 27 27 26 25 24 25 26 26 26 26 26 25 25 24 24 23 22 21 22 23 23 23
22 22 22 22 22 23 24 24 25 26 26 27 27 28 27 27 27 28 29 30 30 30 30 30 31 30 30 29 28 28 28 27 27 26 27 27 27 27 27 27 27 27 26 26 25 24 25 27 27 27 28 27 26 26 25 24 24 23 22 22 23 23
21 21 21 21 22 23 24 24 25 26 27 27 27 27 27 27 27 26 27 28 28 28 28 29 28 28 28 27 27 26 26 26 27 27 27 27 27 27 27 27 27 27 27 26 25 23 23 25 27 28 28 27 26 26 26 26 26 26 25 22 21 22
20 20 20 21 22 23 24 24 25 26 26 25 26 26 26 26 25 25 24 25 25 25 25 25 24 24 23 23 23 22 22 22 23 24 24 24 24 25 26 26 26 26 26 25 25 23 22 23 25 27 28 27 26 25 25 26 26 27 28 25 21 19
19 20 21 21 22 22 24 25 24 23 23 24 24 24 24 23 23 23 22 21 21 20 20 20 19 19 18 18 18 17 17 17 17 18 18 19 20 21 22 23 23 23 23 22 22 21 20 19 21 24 26 26 26 25 24 25 26 27 28 28 23 18
20 21 21 21 21 22 24 24 22 21 22 22 22 22 21 21 20 20 19 18 17 16 15 15 15 14 14 14 13 13 13 12 12 12 13 13 15 16 17 18 18 19 19 18 18 18 17 17 18 19 21 23 25 26 25 24 25 26 27 28 26 21
20 21 20 20 21 23 22 20 19 20 21 21 21 20 19 19 18 18 16 15 14 13 12 12 11 11 11 12 11 11 12 11 11 10 10 10 10 11 12 12 13 14 14 14 14 14 14 15 16 17 18 20 21 23 24 24 24 25 26 26 26 24
20 20 20 20 22 21 19 17 17 18 19 19 18 18 18 18 18 16 15 13 12 12 11 10 9 10 10 11 10 11 11 11 11 10 10 9 8 7 8 8 10 11 11 12 12 12 12 13 14 15 16 17 19 20 21 22 23 24 25 26 25 24
20 20 20 21 22 19 15 14 16 17 17 17 17 16 16 16 17 15 14 13 12 12 11 10 10 11 11 11 10 10 10 10 10 10 10 10 9 8 7 7 8 9 10 10 10 11 11 11 11 12 14 15 17 18 19 20 21 22 24 25 25 24
21 21 21 22 22 18 14 14 15 15 16 16 16 16 16 16 16 15 13 13 12 12 11 11 11 11 11 11 10 10 10 10 10 10 10 10 10 9 9 9 9 8 9 10 10 11 11 10 10 11 13 14 15 16 17 18 19 20 21 23 23 23
21 21 22 23 22 17 14 14 14 14 15 16 16 15 15 15 15 14 13 12 12 12 11 10 10 10 10 10 10 9 9 10 10 10 10 10 10 9 9 9 8 7 8 9 10 10 10 11 11 11 12 13 13 14 14 15 16 16 17 19 20 21
20 21 22 22 21 17 14 14 14 14 15 15 16 16 15 15 14 13 13 12 11 11 11 10 10 9 9 8 8 8 8 9 10 10 9 9 9 9 8 9 9 7 7 8 9 9 10 11 11 11 12 13 13 13 13 14 15 15 15 15 16 18
21 21 22 22 20 17 15 14 14 14 14 15 16 16 16 15 14 13 12 11 10 10 10 10 9 8 8 8 8 8 8 9 9 9 9 8 8 8 8 9 9 9 8 8 8 9 10 10 10 11 12 12 13 13 13 14 14 14 14 14 14 16
Wind_Direction
141 140 159 174 181 185 188 188 186 188 184 177 178 182 186 184 179 172 167 168 171 175 178 175 173 179 189 191 181 170 170 181 196 203 212 226 240 282 303 326 337 327 321 323 14 56 65 66 57 55 53 42 39 45 51 59 69 76 83 99 115 124
134 142 163 176 183 181 181 181 183 185 177 176 183 188 196 198 195 202 202 201 199 197 199 197 191 192 196 199 203 200 196 196 199 202 210 228 237 257 285 301 308 307 310 312 330 41 63 68 63 57 57 50 43 45 44 43 45 52 60 74 86 82
130 147 157 159 159 154 157 159 163 164 156 167 182 189 199 205 213 223 228 227 226 225 222 223 221 217 213 208 210 213 213 213 212 209 211 222 230 235 251 268 276 288 300 302 301 352 65 74 70 61 59 56 52 52 49 43 39 38 39 44 54 55
131 137 134 133 129 128 134 139 146 146 149 166 181 189 199 212 241 250 245 238 235 237 234 237 244 247 241 231 225 220 219 224 224 222 225 227 231 233 237 249 255 265 279 288 284 279 80 83 75 67 64 57 50 51 51 49 45 38 34 34 41 47
130 131 134 133 129 130 129 136 146 145 147 157 165 166 178 213 288 281 274 262 251 246 243 242 245 253 255 252 249 243 239 241 240 238 240 241 244 244 240 245 250 252 254 260 266 264 248 136 96 75 72 64 48 44 46 41 37 33 27 31 40 47
143 147 146 141 141 147 141 149 165 158 123 121 100 41 19 353 341 330 325 312 295 280 269 263 258 257 254 253 256 258 258 256 257 254 252 252 253 255 250 247 249 252 250 238 240 248 246 226 219 248 308 29 43 34 38 34 27 19 14 23 32 43
161 164 166 170 172 255 271 182 230 316 319 317 316 328 330 326 325 324 325 322 317 307 298 292 286 278 265 256 253 256 259 259 260 260 263 262 257 257 257 256 254 255 255 248 241 240 239 239 241 246 268 281 292 343 13 21 17 10 2 7 17 30
178 192 202 224 255 287 300 296 311 323 315 310 310 313 315 316 314 313 312 309 307 304 302 300 297 293 284 271 261 258 259 261 262 265 272 271 263 259 257 259 260 260 259 256 251 246 244 250 257 259 263 273 282 295 313 326 343 350 342 340 346 359
200 211 229 260 279 290 302 308 322 336 334 320 315 319 323 324 319 314 311 306 303 300 298 297 294 292 289 284 276 271 268 267 268 270 274 273 267 263 262 260 259 260 264 262 259 256 255 256 261 263 261 265 274 285 292 294 295 297 304 311 318 324
203 226 253 272 293 307 316 323 325 326 324 315 307 308 315 319 319 316 311 306 304 303 301 298 296 291 288 285 280 277 273 271 272 272 273 271 268 265 265 263 260 259 262 264 263 262 262 258 258 259 258 258 261 271 276 278 280 277 279 290 302 309
224 249 256 272 305 314 317 317 317 317 317 311 304 303 309 314 317 316 312 309 306 304 301 298 295 292 289 286 282 279 275 273 272 272 273 273 272 269 266 264 263 262 261 261 261 262 261 259 259 257 257 256 254 260 265 265 266 268 272 275 283 292
253 261 259 293 313 315 316 312 311 312 313 310 308 308 311 315 316 315 313 310 308 305 302 298 295 292 290 288 287 285 281 278 276 275 275 275 275 274 271 269 266 264 263 261 259 259 258 259 263 261 257 256 253 255 259 259 259 263 267 264 264 264
269 273 287 303 307 308 307 305 304 305 308 309 310 311 312 313 311 310 308 307 306 304 302 300 297 294 290 290 289 289 288 286 284 282 281 279 277 276 274 272 270 268 265 262 258 257 256 257 260 261 260 258 256 256 256 256 257 260 261 261 261 257
269 278 289 294 296 299 298 298 300 302 305 306 305 306 304 304 303 302 302 302 302 302 302 300 298 296 292 290 290 291 290 289 287 285 284 283 282 280 277 274 271 269 267 265 261 258 257 257 258 259 260 260 260 259 257 256 257 259 261 262 263 263
266 279 284 286 288 290 292 292 294 297 300 301 301 301 299 299 298 298 298 298 298 298 298 297 296 294 292 290 289 290 289 288 287 285 284 283 282 283 282 279 275 271 269 267 266 263 262 261 260 259 259 261 261 261 260 259 259 261 263 265 267 269
264 270 272 277 283 288 293 294 294 295 297 299 299 299 299 299 298 297 296 295 295 294 293 292 291 291 290 288 287 287 287 287 287 287 287 286 285 283 283 283 281 277 273 270 268 266 265 264 262 261 261 261 262 262 263 263 261 260 260 263 269 272
258 265 272 278 285 290 294 294 296 296 297 298 298 298 298 298 298 297 295 294 292 290 288 286 286 285 285 285 285 285 285 286 287 287 288 289 289 286 283 282 282 280 277 273 269 266 264 264 263 263 263 263 263 263 264 264 264 262 259 259 264 268
262 271 278 283 287 289 290 291 293 294 295 296 296 296 295 295 295 294 294 292 290 289 286 285 283 282 281 281 281 281 282 283 285 286 287 287 287 287 285 282 280 279 277 274 271 268 265 263 263 263 263 263 263 264 264 264 265 264 262 261 261 262
269 275 281 286 289 291 293 293 294 294 295 294 293 293 292 292 291 291 291 290 288 287 286 285 284 283 283 282 281 280 279 280 281 284 285 285 285 286 286 283 281 278 277 277 276 272 267 265 264 263 262 262 262 264 265 265 265 264 263 262 262 262
273 279 284 288 291 293 295 296 296 296 294 293 292 291 290 290 289 289 288 287 286 286 285 285 284 284 283 283 282 281 280 279 279 280 282 283 284 285 286 287 285 282 281 282 283 280 274 270 268 266 264 263 263 265 266 267 268 269 268 266 264 263
277 280 283 286 288 291 293 295 295 294 292 291 290 290 289 289 288 287 286 285 285 284 284 285 284 284 282 280 279 279 279 278 278 278 278 279 280 281 282 285 286 285 283 282 283 283 280 276 272 271 269 267 266 267 268 268 268 270 271 270 269 267
281 283 284 285 287 290 294 295 295 293 292 291 290 289 288 287 287 286 285 284 284 284 284 284 284 284 283 280 277 275 275 275 276 277 277 277 277 277 278 280 282 283 283 283 282 281 279 278 277 277 274 270 269 268 269 270 270 271 272 273 273 273
283 284 285 286 289 293 296 296 296 296 295 294 293 291 290 288 286 286 285 286 286 286 286 286 285 284 284 283 281 277 274 272 273 274 275 275 276 276 277 278 278 279 282 284 283 281 279 280 281 282 280 276 274 271 269 270 273 275 277 278 277 277
282 283 285 288 292 295 297 297 297 298 298 297 296 295 294 292 290 288 287 287 287 287 287 286 286 285 285 284 284 282 279 274 272 270 270 271 273 275 277 278 280 281 282 283 283 281 279 279 279 281 281 281 282 280 276 274 274 275 278 279 281 282
282 284 286 290 293 294 294 295 297 298 299 299 299 298 297 296 295 294 292 291 290 290 289 288 287 286 286 285 285 284 282 279 274 270 269 270 271 273 276 278 281 283 283 283 283 280 277 276 275 276 278 281 283 283 282 283 281 278 277 278 280 282
284 286 289 292 293 293 294 295 296 297 298 299 299 298 297 297 296 295 294 293 293 292 291 290 290 289 289 288 287 285 283 281 278 274 271 271 272 273 275 277 279 281 282 282 281 278 274 272 272 272 274 278 281 282 283 285 285 283 279 277 279 281
285 287 290 293 294 295 297 299 301 302 302 302 302 302 302 302 301 300 298 297 296 295 294 293 292 292 292 291 290 288 286 283 280 277 275 273 273 274 275 276 276 278 279 280 280 278 272 269 268 269 271 274 278 280 281 283 285 285 283 279 277 279
288 291 293 295 298 301 304 307 308 307 307 307 308 310 310 310 310 309 307 304 302 301 299 299 298 297 296 295 295 294 291 288 285 282 280 278 276 274 274 275 275 275 275 276 277 277 274 270 267 266 267 271 276 278 279 281 284 285 285 282 276 273
295 296 298 301 305 309 311 312 311 310 312 314 315 315 316 316 316 315 312 309 308 307 307 306 307 307 306 304 302 301 299 296 292 289 286 283 280 276 275 274 274 274 274 274 276 278 277 275 272 268 267 269 272 274 276 279 282 283 283 282 278 268
300 301 304 308 312 314 314 313 312 314 317 318 319 319 320 320 319 317 313 311 312 314 316 320 323 324 322 319 317 313 309 307 302 297 291 286 282 278 276 275 274 275 276 277 279 281 280 278 277 274 273 273 273 275 276 278 280 281 281 280 276 270
304 304 308 313 315 316 315 312 313 317 319 320 321 322 323 323 320 317 313 313 318 321 326 335 336 331 328 329 329 323 320 319 316 312 305 296 285 278 276 277 278 280 283 284 285 285 284 281 280 281 282 281 279 280 280 280 279 280 281 279 277 273
306 308 311 313 316 317 313 310 315 319 320 322 323 324 325 325 323 320 317 318 322 325 331 339 338 335 336 336 335 331 328 328 326 325 322 316 311 304 297 293 290 289 290 293 296 295 291 287 284 284 284 284 284 283 282 282 282 281 282 281 278 276
310 311 312 314 316 316 310 311 318 320 322 325 327 327 328 328 328 325 323 322 324 326 330 335 338 342 342 340 342 341 337 335 333 334 333 331 331 327 322 314 306 301 301 302 302 300 297 293 288 285 285 286 287 287 286 286 286 286 284 283 280 279
313 314 314 316 317 315 311 313 319 322 327 330 331 331 331 332 333 332 329 326 325 325 328 332 336 341 342 344 349 349 345 340 338 338 337 336 334 332 329 320 309 301 301 302 298 294 292 290 289 287 286 287 288 289 289 289 288 287 287 286 284 282
316 317 318 319 318 315 312 316 320 326 333 336 336 333 334 335 335 334 332 329 327 327 329 329 328 330 335 343 348 349 349 346 343 343 342 338 336 337 335 325 317 309 302 300 296 294 293 290 287 285 285 286 286 287 288 288 288 288 290 291 290 287
320 320 321 323 321 314 312 314 318 327 336 339 337 334 334 334 332 333 332 328 327 329 329 326 320 317 321 330 336 338 342 345 345 347 347 343 339 338 331 320 321 321 310 305 301 298 296 292 289 287 286 286 285 284 284 283 286 289 292 294 294 294
327 325 325 326 322 314 309 310 314 324 334 338 337 334 333 332 331 332 331 328 327 326 324 323 320 316 311 310 313 316 324 334 339 340 342 342 341 338 329 321 323 325 319 312 307 302 299 296 294 291 288 287 285 283 281 278 280 285 289 291 293 296
Height
3156 3159 3161 3162 3164 3164 3164 3164 3164 3164 3164 3164 3164 3164 3164 3164 3164 3164 3164 3164 3165 3165 3165 3166 3166 3166 3166 3167 3167 3167 3167 3167 3168 3168 3168 3168 3168 3168 3168 3168 3168 3168 3168 3169 3170 3170 3170 3170 3170 3170 3170 3170 3170 3170 3170 3169 3169 3168 3168 3168 3168 3168
3158 3160 3161 3163 3164 3164 3164 3164 3164 3164 3164 3164 3164 3165 3165 3165 3165 3165 3165 3165 3165 3165 3166 3166 3166 3166 3166 3167 3167 3167 3168 3168 3168 3168 3168 3169 3169 3169 3168 3168 3168 3168 3169 3169 3170 3170 3170 3170 3170 3170 3170 3170 3170 3171 3170 3170 3170 3169 3169 3169 3169 3168
3159 3161 3162 3163 3164 3164 3164 3164 3164 3164 3164 3164 3164 3165 3165 3165 3165 3165 3165 3165 3165 3165 3166 3166 3166 3167 3167 3167 3167 3168 3168 3168 3168 3168 3168 3168 3169 3169 3169 3169 3169 3169 3169 3169 3170 3171 3171 3170 3170 3170 3170 3170 3170 3171 3171 3171 3171 3171 3170 3170 3170 3169
3160 3162 3163 3163 3164 3164 3164 3164 3164 3164 3164 3164 3164 3164 3164 3164 3165 3165 3165 3165 3165 3165 3165 3166 3166 3167 3167 3167 3167 3168 3168 3168 3168 3168 3168 3168 3168 3168 3169 3169 3169 3169 3169 3169 3170 3170 3171 3171 3170 3170 3170 3170 3171 3171 3171 3172 3172 3172 3171 3171 3170 3170
3161 3162 3163 3163 3164 3164 3164 3164 3164 3164 3164 3164 3164 3164 3164 3164 3164 3165 3165 3165 3165 3166 3166 3166 3166 3166 3167 3167 3168 3168 3168 3168 3168 3168 3169 3169 3169 3169 3169 3169 3169 3169 3169 3169 3169 3170 3170 3170 3171 3171 3171 3171 3171 3171 3171 3172 3172 3172 3172 3171 3171 3170
3162 3162 3163 3163 3164 3164 3164 3164 3164 3164 3164 3164 3164 3164 3164 3164 3164 3165 3165 3165 3166 3166 3166 3166 3166 3166 3166 3167 3167 3168 3168 3168 3168 3169 3169 3169 3169 3169 3169 3169 3169 3169 3169 3169 3169 3169 3169 3170 3170 3171 3171 3171 3171 3171 3171 3171 3172 3172 3172 3172 3171 3171
3162 3162 3163 3163 3163 3164 3164 3164 3164 3164 3164 3164 3164 3164 3164 3164 3165 3165 3165 3165 3166 3166 3166 3167 3166 3166 3166 3167 3167 3167 3168 3168 3168 3169 3169 3169 3169 3169 3169 3169 3169 3169 3169 3169 3169 3169 3169 3169 3170 3170 3170 3170 3170 3170 3170 3171 3171 3171 3172 3172 3171 3171
3161 3162 3162 3163 3163 3164 3164 3164 3164 3164 3164 3164 3165 3165 3165 3165 3165 3165 3165 3165 3165 3166 3166 3167 3166 3166 3166 3166 3167 3167 3167 3167 3168 3168 3168 3168 3168 3168 3168 3168 3169 3169 3169 3169 3169 3169 3169 3169 3169 3170 3170 3170 3170 3170 3170 3170 3170 3171 3171 3171 3171 3171
3162 3162 3162 3163 3163 3164 3164 3164 3164 3164 3164 3165 3165 3165 3165 3165 3165 3165 3165 3165 3165 3165 3166 3166 3166 3166 3166 3166 3166 3166 3166 3166 3166 3167 3167 3167 3168 3168 3168 3168 3168 3168 3169 3169 3169 3169 3169 3169 3169 3169 3169 3170 3170 3170 3170 3170 3170 3170 3170 3171 3171 3171
3162 3162 3163 3163 3163 3164 3164 3164 3164 3164 3164 3164 3165 3165 3166 3166 3165 3165 3165 3165 3165 3165 3165 3166 3166 3166 3165 3165 3165 3165 3165 3165 3165 3165 3165 3166 3166 3167 3167 3167 3167 3167 3168 3168 3168 3168 3169 3169 3168 3169 3169 3169 3169 3169 3169 3169 3170 3170 3170 3170 3170 3170
3162 3162 3163 3163 3163 3163 3163 3163 3163 3163 3163 3164 3164 3165 3165 3166 3165 3165 3165 3165 3165 3165 3165 3165 3165 3165 3165 3165 3165 3165 3164 3164 3164 3164 3164 3165 3165 3165 3166 3166 3166 3167 3167 3167 3167 3167 3168 3168 3168 3168 3168 3168 3168 3168 3168 3169 3169 3169 3169 3170 3170 3170
3162 3162 3162 3162 3162 3162 3162 3162 3163 3163 3163 3163 3164 3164 3165 3165 3165 3165 3165 3165 3165 3165 3165 3164 3164 3164 3164 3164 3164 3164 3164 3163 3163 3163 3163 3164 3164 3164 3165 3165 3165 3165 3166 3166 3166 3166 3166 3167 3167 3167 3167 3167 3167 3167 3168 3168 3168 3168 3169 3169 3169 3168
3162 3162 3162 3162 3162 3162 3161 3162 3162 3162 3163 3163 3163 3164 3164 3164 3164 3164 3164 3164 3164 3163 3163 3163 3163 3163 3163 3163 3163 3163 3162 3162 3162 3162 3162 3162 3162 3163 3163 3163 3164 3164 3164 3165 3165 3165 3165 3165 3165 3166 3166 3166 3166 3166 3166 3167 3167 3167 3168 3168 3168 3168
3162 3162 3162 3162 3162 3162 3162 3162 3162 3162 3162 3163 3163 3163 3163 3164 3164 3163 3163 3163 3162 3162 3162 3162 3162 3162 3162 3162 3161 3161 3161 3161 3161 3161 3161 3161 3161 3161 3162 3162 3162 3162 3162 3163 3163 3163 3163 3164 3164 3164 3164 3164 3165 3165 3165 3166 3166 3166 3167 3167 3167 3167
3162 3162 3162 3162 3162 3162 3162 3162 3162 3162 3162 3162 3162 3162 3163 3162 3162 3162 3162 3161 3161 3161 3160 3160 3160 3160 3160 3160 3160 3159 3159 3159 3159 3159 3159 3159 3159 3160 3160 3160 3160 3160 3161 3161 3161 3161 3161 3162 3162 3162 3163 3163 3163 3164 3164 3165 3165 3165 3166 3166 3166 3166
3162 3162 3162 3162 3162 3162 3162 3162 3162 3162 3162 3162 3161 3161 3161 3161 3160 3160 3160 3160 3159 3159 3159 3158 3158 3158 3158 3158 3158 3157 3157 3157 3157 3157 3157 3157 3158 3158 3158 3158 3158 3158 3159 3159 3159 3159 3160 3160 3160 3161 3161 3161 3162 3162 3162 3163 3163 3164 3164 3164 3165 3165
3162 3162 3162 3162 3162 3162 3162 3162 3161 3161 3161 3161 3160 3160 3159 3159 3158 3158 3158 3157 3157 3157 3157 3156 3156 3156 3156 3156 3156 3156 3155 3155 3155 3156 3156 3156 3156 3156 3156 3156 3156 3156 3156 3157 3157 3157 3158 3158 3158 3159 3159 3160 3160 3160 3160 3161 3161 3162 3162 3163 3163 3163
3162 3162 3162 3162 3162 3162 3162 3161 3161 3160 3160 3159 3158 3158 3157 3157 3156 3155 3155 3155 3155 3155 3155 3154 3154 3154 3154 3154 3154 3154 3153 3153 3153 3154 3154 3154 3154 3154 3154 3155 3155 3154 3154 3155 3155 3155 3155 3156 3156 3157 3157 3158 3158 3158 3158 3158 3159 3159 3160 3160 3161 3161
3162 3162 3161 3161 3161 3161 3160 3160 3160 3159 3158 3158 3157 3156 3155 3154 3154 3153 3153 3152 3152 3152 3152 3152 3152 3152 3152 3151 3151 3151 3151 3151 3151 3151 3151 3151 3152 3152 3152 3152 3153 3153 3152 3153 3153 3153 3153 3153 3154 3154 3155 3155 3155 3155 3155 3156 3156 3156 3157 3157 3158 3158
3162 3162 3161 3161 3160 3160 3159 3159 3158 3157 3156 3155 3154 3153 3153 3152 3151 3151 3150 3150 3150 3150 3150 3150 3150 3150 3150 3149 3149 3149 3148 3148 3149 3149 3149 3149 3149 3150 3150 3150 3151 3151 3151 3151 3151 3151 3151 3151 3151 3151 3152 3152 3152 3152 3153 3153 3154 3154 3154 3155 3155 3155
3162 3161 3161 3160 3159 3159 3158 3157 3157 3156 3155 3153 3152 3151 3150 3150 3149 3149 3148 3148 3147 3147 3147 3147 3147 3147 3148 3147 3147 3147 3146 3146 3146 3147 3147 3147 3147 3147 3147 3147 3148 3148 3148 3149 3149 3149 3148 3148 3148 3149 3149 3149 3150 3150 3150 3151 3151 3152 3152 3153 3153 3153
3160 3160 3159 3159 3158 3157 3157 3156 3154 3153 3152 3151 3150 3150 3149 3148 3147 3146 3145 3145 3145 3145 3144 3144 3144 3144 3144 3145 3145 3145 3144 3144 3144 3144 3144 3144 3144 3144 3144 3145 3145 3145 3145 3145 3146 3146 3146 3145 3146 3146 3146 3146 3147 3148 3148 3148 3149 3149 3150 3150 3151 3151
3159 3158 3158 3157 3156 3155 3154 3153 3152 3151 3150 3149 3148 3147 3146 3146 3145 3144 3143 3142 3142 3142 3142 3141 3141 3141 3141 3141 3142 3142 3142 3142 3142 3142 3142 3141 3141 3141 3141 3141 3142 3142 3142 3143 3143 3143 3143 3143 3143 3143 3143 3143 3144 3145 3146 3146 3146 3147 3147 3148 3148 3148
3158 3157 3156 3155 3154 3153 3152 3151 3149 3148 3147 3146 3145 3144 3144 3143 3142 3141 3141 3140 3139 3139 3139 3139 3138 3138 3138 3138 3138 3138 3139 3139 3139 3139 3139 3139 3139 3139 3138 3138 3139 3139 3140 3141 3140 3140 3140 3141 3141 3141 3140 3140 3141 3141 3142 3143 3144 3144 3144 3144 3145 3145
3156 3155 3154 3154 3153 3151 3150 3149 3148 3146 3145 3143 3142 3141 3141 3140 3139 3138 3137 3137 3136 3136 3136 3135 3135 3135 3135 3135 3135 3135 3135 3136 3136 3136 3136 3136 3136 3136 3136 3136 3136 3136 3137 3138 3138 3138 3138 3138 3138 3138 3138 3138 3138 3138 3139 3139 3140 3141 3141 3141 3141 3142
3154 3153 3152 3152 3151 3150 3149 3147 3146 3144 3143 3142 3140 3139 3138 3137 3136 3135 3134 3133 3133 3133 3132 3132 3131 3131 3131 3131 3132 3132 3132 3132 3132 3133 3133 3133 3134 3134 3134 3134 3134 3134 3134 3134 3135 3135 3135 3135 3136 3136 3136 3136 3136 3136 3136 3136 3136 3136 3137 3138 3138 3139
3152 3151 3150 3150 3149 3147 3146 3145 3143 3141 3140 3139 3137 3136 3135 3134 3133 3132 3131 3130 3130 3129 3129 3128 3128 3128 3128 3128 3128 3128 3128 3128 3129 3129 3129 3130 3130 3130 3131 3131 3131 3131 3131 3131 3131 3131 3132 3132 3133 3133 3133 3134 3134 3134 3133 3133 3133 3133 3133 3135 3135 3135
3150 3149 3149 3148 3146 3145 3144 3142 3140 3139 3137 3136 3135 3133 3132 3131 3130 3129 3128 3127 3127 3126 3126 3125 3125 3125 3125 3125 3125 3125 3125 3125 3125 3125 3125 3126 3126 3127 3127 3127 3127 3127 3127 3127 3127 3128 3128 3129 3129 3130 3130 3131 3131 3131 3131 3131 3131 3130 3130 3131 3132 3132
3149 3148 3147 3146 3144 3143 3141 3139 3138 3136 3135 3134 3132 3131 3130 3129 3128 3127 3126 3125 3124 3124 3123 3123 3123 3123 3123 3122 3122 3122 3122 3122 3122 3122 3122 3123 3123 3123 3124 3124 3124 3124 3124 3125 3125 3125 3125 3126 3126 3126 3127 3128 3128 3128 3129 3129 3129 3128 3128 3127 3128 3130
3147 3146 3145 3143 3142 3140 3139 3137 3136 3135 3133 3132 3131 3129 3128 3127 3126 3125 3124 3123 3123 3123 3122 3122 3122 3121 3121 3121 3121 3120 3120 3120 3120 3120 3120 3120 3120 3120 3121 3121 3121 3122 3122 3122 3123 3123 3123 3123 3124 3124 3124 3125 3125 3126 3126 3127 3126 3126 3126 3125 3125 3126
3145 3144 3143 3142 3140 3139 3137 3136 3135 3134 3132 3131 3129 3128 3127 3126 3125 3124 3123 3122 3122 3121 3121 3121 3121 3120 3120 3119 3119 3119 3119 3118 3118 3118 3118 3118 3118 3118 3119 3119 3119 3120 3120 3120 3121 3121 3121 3122 3122 3122 3122 3123 3123 3123 3123 3124 3124 3123 3123 3123 3123 3123
3144 3143 3141 3140 3139 3138 3136 3135 3134 3133 3131 3130 3128 3127 3126 3124 3123 3122 3122 3121 3121 3120 3120 3120 3120 3119 3119 3118 3118 3118 3118 3118 3117 3117 3117 3117 3117 3117 3118 3118 3118 3118 3119 3119 3120 3120 3120 3120 3120 3120 3121 3121 3121 3121 3121 3121 3121 3121 3120 3121 3120 3120
3142 3141 3140 3138 3137 3137 3136 3135 3133 3132 3130 3129 3127 3126 3124 3123 3122 3121 3120 3120 3120 3119 3119 3119 3119 3118 3118 3117 3117 3117 3117 3117 3117 3117 3116 3116 3116 3117 3117 3117 3117 3118 3118 3118 3118 3119 3119 3119 3119 3119 3119 3119 3119 3119 3119 3118 3118 3118 3118 3118 3118 3119
3141 3140 3138 3136 3135 3135 3134 3134 3132 3131 3129 3128 3126 3125 3123 3122 3121 3120 3119 3119 3118 3118 3118 3118 3118 3117 3117 3117 3117 3116 3116 3116 3116 3116 3116 3116 3116 3116 3116 3116 3116 3117 3117 3117 3117 3117 3117 3117 3117 3117 3117 3117 3117 3116 3116 3116 3116 3116 3116 3116 3116 3117
3139 3138 3136 3134 3133 3133 3132 3132 3131 3130 3128 3127 3125 3124 3123 3121 3120 3119 3118 3118 3117 3117 3117 3117 3117 3117 3116 3116 3116 3116 3116 3116 3116 3116 3116 3116 3116 3116 3116 3115 3116 3116 3116 3116 3116 3116 3116 3116 3115 3115 3115 3115 3115 3115 3114 3114 3114 3113 3114 3114 3114 3114
3138 3136 3135 3133 3131 3131 3131 3130 3129 3128 3127 3126 3125 3123 3122 3121 3120 3119 3118 3117 3116 3116 3116 3116 3116 3116 3116 3116 3116 3116 3115 3115 3116 3116 3116 3115 3115 3115 3115 3115 3115 3115 3115 3114 3114 3114 3114 3114 3114 3114 3113 3113 3113 3113 3113 3112 3112 3112 3112 3112 3112 3112
3137 3135 3133 3131 3130 3130 3129 3129 3128 3127 3126 3125 3124 3123 3121 3120 3119 3118 3117 3116 3116 3115 3115 3115 3115 3115 3115 3115 3115 3115 3115 3115 3115 3115 3115 3115 3115 3115 3115 3114 3114 3114 3114 3113 3113 3113 3113 3113 3113 3112 3112 3112 3111 3111 3111 3111 3111 3110 3110 3110 3110 3110